Zurück zum Katalog

SUPERBIRD 6

AktivKommunikationGEO
NORAD 28218·PAYLOAD·🇯🇵 Japan

Gestartet Apr 16, 2004 von Cape Canaveral Space Force Station

Loading…

TLE

AktuellSource: Space-Track

Epoche: Sep 14, 2026, 03:28 UTC

1 28218U 04011A   26257.14447038 -.00000237  00000-0  00000-0 0  9993
2 28218  13.5424  16.9343 0026211  48.6707 324.9719  0.99465583 81331

Verfolge SUPERBIRD 6 in Echtzeit mit AllMySat

Download on the App Store